Waarnemingen

Advertentie
Mijn weer
Soderstjerna, Zweden (2667): temperatuur & dauwpunt: 12.01.2020 14:00:00 - 18.01.2020 14:00:00 (CET)Soderstjerna, Zweden (2667): windsnelheid & windstoten: 12.01.2020 14:00:00 - 18.01.2020 14:00:00 (CET)Soderstjerna, Zweden (2667): windrichting: 12.01.2020 14:00:00 - 18.01.2020 14:00:00 (CET)Soderstjerna, Zweden (2667): luchtdruk: 12.01.2020 14:00:00 - 18.01.2020 14:00:00 (CET)Soderstjerna, Zweden (2667): zicht: 12.01.2020 14:00:00 - 18.01.2020 14:00:00 (CET)Soderstjerna, Zweden (2667): neerslag: 12.01.2020 14:00:00 - 18.01.2020 14:00:00 (CET)
Datum & Tijd tt [°C] td [°C] ff [km/u] ff [kn] fx [km/u] fx [kn] dd ppp [hPa] vv [km] rr [mm]
18.01.2020 14:00:00 6,1 3,6 43 23 50 27 ZW 1013,8 22 0,0
18.01.2020 13:00:00 6,3 3,6 40 21 50 27 WZW 1013,7 26 0,0
18.01.2020 12:00:00 6,4 3,6 36 19 50 27 WZW 1013,4 35 0,0
18.01.2020 11:00:00 6,1 4,1 36 19 50 27 WZW 1013,5 35 0,0
18.01.2020 10:00:00 6,4 4,1 40 21 47 25 WZW 1013,0 45 0,0
18.01.2020 09:00:00 6,2 4,2 36 19 50 27 WZW 1012,7 30 0,0
18.01.2020 08:00:00 6,6 5,4 36 19 43 23 WZW 1012,1 14 0,0
18.01.2020 07:00:00 6,6 6,2 29 16 36 19 WZW 1011,5 8 0,0
18.01.2020 06:00:00 6,1 5,7 25 14 32 18 WZW 1011,3 4,0 0,0
18.01.2020 05:00:00 5,8 5,4 25 14 32 18 WZW 1011,3 3,7 0,3
18.01.2020 04:00:00 5,7 4,8 29 16 36 19 ZW 1011,1 4,1 0,0
18.01.2020 03:00:00 5,6 4,6 25 14 29 16 ZW 1011,3 5 0,0
18.01.2020 02:00:00 5,5 4,5 22 12 36 19 ZZW 1011,4 5 0,0
18.01.2020 01:00:00 5,7 4,7 32 18 36 19 ZZW 1011,5 5 0,0
18.01.2020 00:00:00 5,6 4,7 29 16 36 19 ZZW 1011,8 5 0,0
17.01.2020 23:00:00 5,7 4,7 22 12 29 16 Z 1012,5 6 0,0
17.01.2020 22:00:00 5,8 4,8 18 10 29 16 Z 1013,3 8 0,0
17.01.2020 21:00:00 5,8 4,8 22 12 32 18 Z 1014,0 9 0,0
17.01.2020 20:00:00 6,1 4,7 25 14 36 19 Z 1014,7 9 0,0
17.01.2020 19:00:00 6,0 4,8 25 14 32 18 Z 1015,2 10 0,0
17.01.2020 18:00:00 6,1 4,6 25 14 32 18 Z 1016,0 12 0,0
17.01.2020 17:00:00 6,1 4,7 29 16 32 18 Z 1016,6 14 0,0
17.01.2020 16:00:00 6,2 5,0 25 14 32 18 Z 1017,0 12 0,0
17.01.2020 15:00:00 6,3 5,1 22 12 29 16 Z 1017,7 13 0,0
17.01.2020 14:00:00 6,5 5,1 11 6 18 10 ZZW 1018,6 11 0,0
17.01.2020 13:00:00 6,8 5,4 11 6 22 12 ZZW 1019,6 11 0,0
17.01.2020 12:00:00 6,6 5,2 18 10 32 18 ZZW 1020,2 11 0,0
17.01.2020 11:00:00 6,2 5,2 25 14 29 16 ZZW 1020,6 8 0,0
17.01.2020 10:00:00 6,0 5,1 25 14 32 18 ZZW 1021,1 8 0,0
17.01.2020 09:00:00 6,0 5,1 29 16 32 18 ZZW 1021,4 10 0,0
17.01.2020 08:00:00 6,1 5,1 25 14 32 18 Z 1021,7 13 0,0
17.01.2020 07:00:00 6,1 5,1 29 16 32 18 Z 1021,9 14 0,0
17.01.2020 06:00:00 6,1 5,1 29 16 32 18 Z 1022,4 18 0,0
17.01.2020 05:00:00 6,0 5,0 25 14 25 14 Z 1022,9 10 0,0
17.01.2020 04:00:00 5,7 5,0 22 12 25 14 ZZW 1023,6 20 0,0
17.01.2020 03:00:00 5,4 5,0 14 8 18 10 ZZW 1024,3 19 0,0
17.01.2020 02:00:00 5,0 4,4 7 4 18 10 ZZW 1025,0 9 0,0
17.01.2020 01:00:00 5,8 4,8 11 6 25 14 WZW 1025,5 13 0,0
17.01.2020 00:00:00 5,5 4,3 11 6 32 18 WZW 1025,9 13 0,0
16.01.2020 23:00:00 5,5 3,8 29 16 40 21 WZW 1026,1 16 0,0
16.01.2020 22:00:00 5,4 4,0 29 16 36 19 WZW 1025,8 15 0,0
16.01.2020 21:00:00 5,6 4,4 25 14 32 18 ZW 1025,8 14 0,0
16.01.2020 20:00:00 6,0 4,6 22 12 32 18 WZW 1025,5 16 0,0
16.01.2020 19:00:00 6,4 4,7 25 14 32 18 WZW 1025,1 16 0,0
16.01.2020 18:00:00 6,2 5,0 18 10 25 14 WZW 1024,8 14 0,0
16.01.2020 17:00:00 6,2 4,5 22 12 29 16 W 1024,4 15 0,0
16.01.2020 16:00:00 6,8 3,9 18 10 29 16 W 1023,7 19 0,0
16.01.2020 15:00:00 7,2 4,3 25 14 40 21 W 1023,2 19 0,0
16.01.2020 14:00:00 7,4 4,0 32 18 43 23 W 1022,2 19 0,0
16.01.2020 13:00:00 7,0 4,8 32 18 47 25 WZW 1021,8 15 0,0
16.01.2020 12:00:00 6,9 4,7 40 21 50 27 WZW 1021,0 17 0,0
16.01.2020 11:00:00 6,7 5,0 36 19 47 25 WZW 1020,5 16 0,0
16.01.2020 10:00:00 6,8 4,6 40 21 47 25 WZW 1019,7 19 0,0
16.01.2020 09:00:00 6,5 4,7 36 19 43 23 WZW 1019,2 19 0,0
16.01.2020 08:00:00 6,4 4,7 32 18 43 23 WZW 1018,5 17 0,0
16.01.2020 07:00:00 6,4 4,2 32 18 40 21 WZW 1017,6 19 0,0
16.01.2020 06:00:00 6,4 3,9 36 19 43 23 WZW 1016,6 26 0,0
16.01.2020 05:00:00 6,0 4,2 32 18 40 21 WZW 1016,1 29 0,0
16.01.2020 04:00:00 6,1 3,9 29 16 40 21 W 1015,4 40 0,0
16.01.2020 03:00:00 6,2 4,2 29 16 40 21 W 1014,6 45 0,0
16.01.2020 02:00:00 5,9 3,9 25 14 36 19 W 1013,3 50 0,0
16.01.2020 01:00:00 6,8 3,8 18 10 54 29 WNW 1011,7 50 0,0
16.01.2020 00:00:00 8,0 6,3 40 21 54 29 W 1009,7 30 0,0
15.01.2020 23:00:00 8,2 6,3 43 23 54 29 ZW 1008,0 23 0,0
15.01.2020 22:00:00 8,3 6,3 40 21 61 33 ZW 1007,5 18 0,0
15.01.2020 21:00:00 8,6 6,0 47 25 65 35 ZW 1006,9 35 0,0
15.01.2020 20:00:00 8,5 6,1 40 21 54 29 ZW 1006,8 35 0,0
15.01.2020 19:00:00 8,7 6,0 43 23 54 29 ZW 1006,6 40 0,0
15.01.2020 18:00:00 8,4 6,2 40 21 54 29 ZW 1006,6 35 0,0
15.01.2020 17:00:00 8,2 6,2 36 19 58 31 ZW 1006,7 35 0,0
15.01.2020 16:00:00 9,4 6,4 43 23 65 35 ZW 1006,2 45 0,0
15.01.2020 15:00:00 8,1 6,2 47 25 54 29 ZW 1006,0 30 0,0
15.01.2020 14:00:00 8,3 6,3 43 23 58 31 ZW 1005,5 35 0,0
15.01.2020 13:00:00 8,6 6,6 47 25 61 33 ZW 1005,2 30 0,0
15.01.2020 12:00:00 8,3 6,6 47 25 65 35 ZW 1004,7 30 0,0
15.01.2020 11:00:00 8,1 6,6 50 27 65 35 ZW 1004,5 19 0,1
15.01.2020 10:00:00 8,1 6,7 47 25 61 33 ZW 1004,2 29 0,0
15.01.2020 09:00:00 8,0 6,9 50 27 65 35 ZW 1003,9 10 0,6
15.01.2020 08:00:00 8,2 6,7 54 29 68 37 ZW 1003,1 13 0,0
15.01.2020 07:00:00 8,4 6,9 47 25 76 41 ZW 1002,9 26 0,0
15.01.2020 06:00:00 8,6 6,0 54 29 76 41 ZW 1002,2 30 0,0
15.01.2020 05:00:00 8,4 6,2 54 29 65 35 ZW 1001,8 30 0,0
15.01.2020 04:00:00 8,5 6,1 54 29 68 37 ZW 1001,7 30 0,0
15.01.2020 03:00:00 8,3 5,9 54 29 65 35 ZW 1001,7 30 0,0
15.01.2020 02:00:00 8,3 5,9 50 27 61 33 ZW 1002,0 40 0,0
15.01.2020 01:00:00 7,4 5,7 40 21 50 27 ZZW 1002,4 35 0,1
15.01.2020 00:00:00 7,5 6,0 40 21 47 25 ZW 1003,4 40 0,0
14.01.2020 23:00:00 6,6 5,9 29 16 32 18 ZZW 1003,3 30 0,0
14.01.2020 22:00:00 6,3 5,6 22 12 32 18 ZZW 1004,4 17 0,0
14.01.2020 21:00:00 6,3 5,7 22 12 29 16 ZW 1004,9 17 0,0
14.01.2020 20:00:00 5,9 5,3 25 14 36 19 ZW 1004,9 17 0,0
14.01.2020 19:00:00 6,3 5,6 29 16 40 21 ZW 1004,8 19 0,0
14.01.2020 18:00:00 6,7 5,6 29 16 43 23 WZW 1004,4 30 0,0
14.01.2020 17:00:00 6,8 6,1 36 19 50 27 WZW 1003,4 21 0,0
14.01.2020 16:00:00 6,9 6,3 40 21 58 31 ZW 1002,9 16 0,2
14.01.2020 15:00:00 6,5 5,9 47 25 54 29 ZW 1002,1 7 0,5
14.01.2020 14:00:00 6,2 5,8 40 21 58 31 ZW 1002,1 6 0,9
14.01.2020 13:00:00 5,9 5,3 40 21 54 29 ZZW 1002,2 5 0,8
14.01.2020 12:00:00 5,7 4,8 43 23 61 33 ZZW 1002,8 5 0,3
14.01.2020 11:00:00 5,6 4,2 43 23 61 33 ZZW 1003,4 9 0,0
14.01.2020 10:00:00 5,5 4,1 47 25 65 35 ZZW 1004,0 10 0,0
14.01.2020 09:00:00 5,5 4,3 43 23 50 27 Z 1005,0 8 0,0
14.01.2020 08:00:00 5,4 4,4 40 21 54 29 Z 1006,2 - 0,0
14.01.2020 07:00:00 5,5 4,0 40 21 50 27 Z 1007,4 19 0,0
14.01.2020 06:00:00 5,5 4,1 40 21 50 27 Z 1008,4 12 0,0
14.01.2020 05:00:00 5,5 4,5 32 18 40 21 Z 1009,4 5 0,0
14.01.2020 04:00:00 5,4 4,5 32 18 36 19 Z - 13 0,0
14.01.2020 03:00:00 5,5 4,5 29 16 40 21 ZZW - 17 0,0
14.01.2020 02:00:00 5,3 4,4 22 12 32 18 ZZW 1012,0 13 0,0
14.01.2020 01:00:00 5,6 4,6 22 12 32 18 ZW 1012,8 14 0,0
14.01.2020 00:00:00 5,6 4,6 22 12 32 18 ZW 1013,0 19 0,0
13.01.2020 23:00:00 5,3 4,3 18 10 29 16 ZW 1013,4 16 0,0
13.01.2020 22:00:00 5,4 4,4 25 14 32 18 ZW 1013,8 22 0,0
13.01.2020 21:00:00 5,4 4,4 18 10 29 16 ZW 1014,2 20 0,0
13.01.2020 20:00:00 4,9 3,4 18 10 25 14 ZW 1014,7 26 0,0
13.01.2020 19:00:00 5,2 3,7 22 12 32 18 WZW 1014,6 26 0,0
13.01.2020 18:00:00 5,5 3,8 29 16 32 18 WZW 1014,6 24 0,0
13.01.2020 17:00:00 5,5 4,1 22 12 25 14 WZW 1014,5 20 0,0
13.01.2020 16:00:00 5,5 4,0 22 12 32 18 WZW 1014,4 21 0,0
13.01.2020 15:00:00 5,5 4,1 22 12 32 18 WZW 1014,5 18 0,0
13.01.2020 14:00:00 5,6 3,9 25 14 32 18 W 1014,8 20 0,0
13.01.2020 13:00:00 5,7 4,0 25 14 32 18 WZW 1014,7 22 0,0
13.01.2020 12:00:00 5,8 4,4 25 14 32 18 W 1015,0 24 0,0
13.01.2020 11:00:00 5,8 4,8 25 14 32 18 W 1015,4 20 0,0
13.01.2020 10:00:00 5,7 4,7 25 14 36 19 W 1015,0 24 0,0
13.01.2020 09:00:00 5,9 4,9 25 14 32 18 WZW 1014,4 23 0,0
13.01.2020 08:00:00 5,7 4,8 18 10 32 18 WZW 1013,7 20 0,0
13.01.2020 07:00:00 6,0 5,1 25 14 32 18 WZW 1013,3 24 0,0
13.01.2020 06:00:00 5,7 5,3 22 12 25 14 WZW 1013,2 14 0,0
13.01.2020 05:00:00 5,3 4,9 18 10 32 18 WZW 1012,9 8 0,0
13.01.2020 04:00:00 5,4 5,0 22 12 25 14 WZW - 17 0,0
13.01.2020 03:00:00 5,1 4,5 11 6 25 14 W 1012,0 16 0,0
13.01.2020 02:00:00 5,3 4,9 22 12 25 14 W 1011,8 30 0,0
13.01.2020 01:00:00 4,9 4,3 14 8 29 16 W 1010,8 22 0,0
13.01.2020 00:00:00 4,9 4,3 25 14 36 19 WZW 1010,0 45 0,3
12.01.2020 23:00:00 5,0 4,4 29 16 36 19 W 1009,8 13 0,5
12.01.2020 22:00:00 5,5 5,1 25 14 29 16 WZW 1009,5 9 1,0
12.01.2020 21:00:00 5,6 5,2 25 14 32 18 WZW 1009,4 9 0,5
12.01.2020 20:00:00 5,8 5,2 25 14 36 19 WZW 1009,5 23 0,1
12.01.2020 19:00:00 6,0 5,1 29 16 40 21 WZW 1009,6 45 0,0
12.01.2020 18:00:00 6,1 5,4 32 18 36 19 WZW 1009,6 35 0,0
12.01.2020 17:00:00 6,2 5,5 29 16 36 19 WZW 1009,8 45 0,0
12.01.2020 16:00:00 6,3 5,4 29 16 36 19 WZW 1009,6 45 0,0
12.01.2020 15:00:00 6,3 5,6 29 16 40 21 WZW 1009,9 27 0,1
12.01.2020 14:00:00 6,3 5,6 32 18 47 25 WZW 1010,0 15 0,1

tt = temperatuur
td = dauwpunt
ff = windsnelheid
fx = windstoten
dd = windrichting
ppp = luchtdruk
vv = zicht
rr = neerslag

Weerstations in de omgeving